"read_dt","SO2 (ppb)","flags","PMT voltage (V)","lamp voltage (V)","lamp intensity (Hz)","internal temp (C)","react chamber temp (C)","sample flow (l/min)","pres (mmHg)","SO2 bkg (ppb)","SO2 coefficient"
2014-09-16 00:00:00,1680E-3,5C000000,-0724,0825,12126,026.2,045.4,0.477,729.6,01.19,0.508
2014-09-16 00:01:00,1780E-3,5C000000,-0724,0826,12370,026.1,045.4,0.478,729.6,01.19,0.508
2014-09-16 00:02:00,1881E-3,5C000000,-0724,0826,12173,026.2,045.4,0.477,729.5,01.19,0.508
2014-09-16 00:03:00,1698E-3,5C000000,-0724,0826,12162,026.2,045.4,0.478,729.5,01.19,0.508
2014-09-16 00:04:00,1789E-3,5C000000,-0724,0825,12131,026.2,045.4,0.477,729.5,01.19,0.508
2014-09-16 00:05:00,1867E-3,5C000000,-0724,0829,12323,026.1,045.4,0.478,729.5,01.19,0.508
2014-09-16 00:06:00,1713E-3,5C000000,-0724,0826,12270,026.2,045.4,0.477,729.5,01.19,0.508
2014-09-16 00:07:00,1722E-3,5C000000,-0724,0826,12256,026.2,045.4,0.478,729.5,01.19,0.508
2014-09-16 00:08:00,1898E-3,5C000000,-0724,0827,12134,026.2,045.4,0.477,729.5,01.19,0.508
2014-09-16 00:09:00,1832E-3,5C000000,-0724,0825,12332,026.2,045.4,0.477,729.5,01.19,0.508
2014-09-16 00:10:00,1719E-3,5C000000,-0724,0826,11148,026.1,045.4,0.478,729.5,01.19,0.508
2014-09-16 00:11:00,1865E-3,5C000000,-0724,0826,12199,026.1,045.4,0.477,729.5,01.19,0.508
2014-09-16 00:12:00,1787E-3,5C000000,-0724,0827,12310,026.1,045.4,0.478,729.5,01.19,0.508
2014-09-16 00:13:00,1828E-3,5C000000,-0724,0826,12263,026.1,045.4,0.477,729.5,01.19,0.508
2014-09-16 00:14:00,1925E-3,5C000000,-0724,0827,12264,026.1,045.4,0.478,729.5,01.19,0.508
2014-09-16 00:15:00,1863E-3,5C000000,-0724,0826,12328,026.2,045.4,0.477,729.5,01.19,0.508
2014-09-16 00:16:00,1939E-3,5C000000,-0724,0826,12001,026.2,045.4,0.478,729.5,01.19,0.508
2014-09-16 00:17:00,1663E-3,5C000000,-0724,0826,12365,026.1,045.4,0.477,729.5,01.19,0.508
2014-09-16 00:18:00,1799E-3,5C000000,-0724,0826,12389,026.1,045.4,0.477,729.5,01.19,0.508
2014-09-16 00:19:00,1769E-3,5C000000,-0724,0827,12361,026.1,045.4,0.478,729.6,01.19,0.508
2014-09-16 00:20:00,1795E-3,5C000000,-0724,0825,12140,026.1,045.4,0.477,729.6,01.19,0.508
2014-09-16 00:21:00,1845E-3,5C000000,-0724,0826,12136,026.1,045.4,0.478,729.6,01.19,0.508
2014-09-16 00:22:00,1885E-3,5C000000,-0724,0825,12313,026.1,045.4,0.477,729.6,01.19,0.508
2014-09-16 00:23:00,1902E-3,5C000000,-0724,0825,12164,026.1,045.4,0.478,729.6,01.19,0.508
2014-09-16 00:24:00,1785E-3,5C000000,-0724,0827,12392,026.1,045.4,0.477,729.6,01.19,0.508
2014-09-16 00:25:00,1966E-3,5C000000,-0724,0825,12085,026.1,045.4,0.478,729.6,01.19,0.508
2014-09-16 00:26:00,1859E-3,5C000000,-0724,0825,12331,026.2,045.4,0.477,729.6,01.19,0.508
2014-09-16 00:27:00,1854E-3,5C000000,-0724,0826,12242,026.1,045.4,0.477,729.6,01.19,0.508
2014-09-16 00:28:00,1910E-3,5C000000,-0724,0826,12275,026.1,045.4,0.477,729.6,01.19,0.508
2014-09-16 00:29:00,1867E-3,5C000000,-0724,0825,11034,026.1,045.4,0.477,729.6,01.19,0.508
2014-09-16 00:30:00,1859E-3,5C000000,-0724,0827,12204,026.1,045.4,0.478,729.6,01.19,0.508
2014-09-16 00:31:00,1750E-3,5C000000,-0724,0826,11182,026.1,045.4,0.477,729.7,01.19,0.508
2014-09-16 00:32:00,1793E-3,5C000000,-0724,0828,12069,026.1,045.4,0.478,729.6,01.19,0.508
2014-09-16 00:33:00,1889E-3,5C000000,-0724,0826,12230,026.1,045.4,0.477,729.6,01.19,0.508
2014-09-16 00:34:00,1766E-3,5C000000,-0724,0825,12099,026.1,045.4,0.478,729.6,01.19,0.508
2014-09-16 00:35:00,1796E-3,5C000000,-0724,0829,12259,026.1,045.4,0.477,729.6,01.19,0.508
2014-09-16 00:36:00,1806E-3,5C000000,-0724,0827,12302,026.1,045.4,0.478,729.7,01.19,0.508
2014-09-16 00:37:00,1734E-3,5C000000,-0724,0827,12326,026.1,045.4,0.477,729.7,01.19,0.508
2014-09-16 00:38:00,1768E-3,5C000000,-0724,0825,12187,026.1,045.4,0.477,729.7,01.19,0.508
2014-09-16 00:39:00,1748E-3,5C000000,-0724,0825,12242,026.1,045.4,0.478,729.7,01.19,0.508
2014-09-16 00:40:00,1751E-3,5C000000,-0724,0826,12386,026.1,045.4,0.477,729.7,01.19,0.508
2014-09-16 00:41:00,1845E-3,5C000000,-0724,0825,12266,026.1,045.4,0.478,729.6,01.19,0.508
2014-09-16 00:42:00,1816E-3,5C000000,-0724,0825,12269,026.1,045.4,0.477,729.6,01.19,0.508
2014-09-16 00:43:00,1814E-3,5C000000,-0724,0825,12247,026.1,045.4,0.478,729.6,01.19,0.508
2014-09-16 00:44:00,1862E-3,5C000000,-0724,0826,12410,026.1,045.4,0.477,729.6,01.19,0.508
2014-09-16 00:45:00,1791E-3,5C000000,-0724,0826,12127,026.1,045.4,0.478,729.6,01.19,0.508
2014-09-16 00:46:00,1816E-3,5C000000,-0724,0825,12314,026.1,045.4,0.477,729.6,01.19,0.508
2014-09-16 00:47:00,1825E-3,5C000000,-0724,0825,12295,026.1,045.4,0.477,729.6,01.19,0.508
2014-09-16 00:48:00,1827E-3,5C000000,-0724,0825,12342,026.1,045.4,0.478,729.6,01.19,0.508
2014-09-16 00:49:00,1785E-3,5C000000,-0724,0825,11058,026.1,045.4,0.477,729.6,01.19,0.508
2014-09-16 00:50:00,1806E-3,5C000000,-0724,0825,12262,026.1,045.4,0.478,729.6,01.19,0.508
2014-09-16 00:51:00,1842E-3,5C000000,-0724,0825,12273,026.1,045.4,0.477,729.6,01.19,0.508
2014-09-16 00:52:00,1878E-3,5C000000,-0724,0826,12207,026.1,045.4,0.478,729.7,01.19,0.508
2014-09-16 00:53:00,1598E-3,5C000000,-0724,0825,11942,026.1,045.4,0.477,729.6,01.19,0.508
2014-09-16 00:54:00,1789E-3,5C000000,-0724,0825,12239,026.1,045.4,0.478,729.6,01.19,0.508
2014-09-16 00:55:00,1797E-3,5C000000,-0724,0826,12080,026.1,045.4,0.477,729.6,01.19,0.508
2014-09-16 00:56:00,1871E-3,5C000000,-0724,0825,12304,026.1,045.4,0.477,729.6,01.19,0.508
2014-09-16 00:57:00,1912E-3,5C000000,-0724,0825,12356,026.1,045.4,0.478,729.6,01.19,0.508
2014-09-16 00:58:00,1887E-3,5C000000,-0724,0826,11994,026.1,045.4,0.477,729.6,01.19,0.508
2014-09-16 00:59:00,1907E-3,5C000000,-0724,0826,12278,026.1,045.4,0.478,729.6,01.19,0.508
2014-09-16 01:00:00,1633E-3,5C000000,-0724,0827,11897,026.1,045.4,0.477,729.6,01.19,0.508
2014-09-16 01:01:00,1767E-3,5C000000,-0724,0826,12351,026.1,045.4,0.478,729.6,01.19,0.508
2014-09-16 01:02:00,1682E-3,5C000000,-0724,0826,12257,026.1,045.4,0.477,729.6,01.19,0.508
2014-09-16 01:03:00,1731E-3,5C000000,-0724,0826,12318,026.1,045.4,0.478,729.5,01.19,0.508
2014-09-16 01:04:00,1759E-3,5C000000,-0724,0825,12149,026.1,045.4,0.478,729.5,01.19,0.508
2014-09-16 01:05:00,1846E-3,5C000000,-0724,0826,12200,026.1,045.4,0.477,729.5,01.19,0.508
2014-09-16 01:06:00,1720E-3,5C000000,-0724,0826,12245,026.1,045.4,0.478,729.5,01.19,0.508
2014-09-16 01:07:00,1894E-3,5C000000,-0724,0825,12260,026.1,045.4,0.477,729.5,01.19,0.508
2014-09-16 01:08:00,1897E-3,5C000000,-0724,0825,12236,026.1,045.4,0.478,729.5,01.19,0.508
2014-09-16 01:09:00,1839E-3,5C000000,-0724,0825,12232,026.1,045.4,0.477,729.5,01.19,0.508
2014-09-16 01:10:00,1614E-3,5C000000,-0724,0826,12096,026.1,045.4,0.477,729.5,01.19,0.508
2014-09-16 01:11:00,1794E-3,5C000000,-0724,0825,12186,026.1,045.4,0.478,729.4,01.19,0.508
2014-09-16 01:12:00,1799E-3,5C000000,-0724,0826,12286,026.1,045.4,0.477,729.4,01.19,0.508
2014-09-16 01:13:00,1704E-3,5C000000,-0724,0825,12302,026.1,045.4,0.478,729.4,01.19,0.508
2014-09-16 01:14:00,1785E-3,5C000000,-0724,0826,12245,026.1,045.4,0.477,729.4,01.19,0.508
2014-09-16 01:15:00,1919E-3,5C000000,-0724,0826,12223,026.1,045.4,0.478,729.4,01.19,0.508
2014-09-16 01:16:00,1761E-3,5C000000,-0724,0826,12279,026.1,045.4,0.477,729.4,01.19,0.508
2014-09-16 01:17:00,1853E-3,5C000000,-0724,0825,12158,026.1,045.4,0.477,729.4,01.19,0.508
2014-09-16 01:18:00,1761E-3,5C000000,-0724,0825,12265,026.1,045.4,0.478,729.4,01.19,0.508
2014-09-16 01:19:00,1897E-3,5C000000,-0724,0826,12253,026.1,045.4,0.477,729.4,01.19,0.508
2014-09-16 01:20:00,1768E-3,5C000000,-0724,0826,12325,026.1,045.4,0.478,729.4,01.19,0.508
2014-09-16 01:21:00,1848E-3,5C000000,-0724,0825,12314,026.1,045.4,0.477,729.4,01.19,0.508
2014-09-16 01:22:00,1779E-3,5C000000,-0724,0826,12143,026.1,045.4,0.477,729.4,01.19,0.508
2014-09-16 01:23:00,1748E-3,5C000000,-0724,0826,12257,026.1,045.4,0.478,729.4,01.19,0.508
2014-09-16 01:24:00,1899E-3,5C000000,-0724,0824,12177,026.1,045.4,0.477,729.4,01.19,0.508
2014-09-16 01:25:00,1882E-3,5C000000,-0724,0826,12243,026.1,045.4,0.478,729.4,01.19,0.508
2014-09-16 01:26:00,1816E-3,5C000000,-0724,0826,12377,026.1,045.4,0.477,729.4,01.19,0.508
2014-09-16 01:27:00,1938E-3,5C000000,-0724,0826,12084,026.1,045.4,0.477,729.4,01.19,0.508
2014-09-16 01:28:00,1759E-3,5C000000,-0724,0825,12157,026.1,045.4,0.478,729.4,01.19,0.508
2014-09-16 01:29:00,1723E-3,5C000000,-0724,0825,12210,026.1,045.4,0.477,729.4,01.19,0.508
2014-09-16 01:30:00,1935E-3,5C000000,-0724,0825,12129,026.1,045.4,0.478,729.4,01.19,0.508
2014-09-16 01:31:00,1736E-3,5C000000,-0724,0825,12198,026.1,045.4,0.477,729.4,01.19,0.508
2014-09-16 01:32:00,1778E-3,5C000000,-0724,0826,12321,026.1,045.4,0.477,729.4,01.19,0.508
2014-09-16 01:33:00,1934E-3,5C000000,-0724,0827,12256,026.1,045.4,0.477,729.4,01.19,0.508
2014-09-16 01:34:00,1895E-3,5C000000,-0724,0826,12342,026.1,045.4,0.477,729.4,01.19,0.508
2014-09-16 01:35:00,1719E-3,5C000000,-0724,0827,12211,026.1,045.4,0.478,729.5,01.19,0.508
2014-09-16 01:36:00,1963E-3,5C000000,-0724,0826,12271,026.1,045.4,0.477,729.5,01.19,0.508
2014-09-16 01:37:00,1888E-3,5C000000,-0724,0826,12268,026.1,045.4,0.478,729.5,01.19,0.508
2014-09-16 01:38:00,1731E-3,5C000000,-0724,0825,12158,026.1,045.4,0.477,729.5,01.19,0.508
2014-09-16 01:39:00,1833E-3,5C000000,-0724,0825,12218,026.1,045.4,0.477,729.5,01.19,0.508
2014-09-16 01:40:00,1823E-3,5C000000,-0724,0825,12287,026.1,045.4,0.478,729.5,01.19,0.508
2014-09-16 01:41:00,1728E-3,5C000000,-0724,0825,12319,026.1,045.4,0.477,729.5,01.19,0.508
2014-09-16 01:42:00,1737E-3,5C000000,-0724,0827,12291,026.1,045.4,0.478,729.4,01.19,0.508
2014-09-16 01:43:00,1864E-3,5C000000,-0724,0826,12268,026.1,045.4,0.477,729.4,01.19,0.508
2014-09-16 01:44:00,1700E-3,5C000000,-0724,0826,12278,026.1,045.4,0.478,729.4,01.19,0.508
2014-09-16 01:45:00,1920E-3,5C000000,-0724,0825,12172,026.1,045.4,0.477,729.4,01.19,0.508
2014-09-16 01:46:00,1811E-3,5C000000,-0724,0825,12231,026.1,045.4,0.477,729.4,01.19,0.508
2014-09-16 01:47:00,1824E-3,5C000000,-0724,0826,12262,026.1,045.4,0.478,729.4,01.19,0.508
2014-09-16 01:48:00,1769E-3,5C000000,-0724,0825,12206,026.1,045.4,0.477,729.3,01.19,0.508
2014-09-16 01:49:00,1756E-3,5C000000,-0724,0826,12262,026.1,045.4,0.478,729.3,01.19,0.508
2014-09-16 01:50:00,1834E-3,5C000000,-0724,0825,12174,026.1,045.4,0.477,729.3,01.19,0.508
2014-09-16 01:51:00,1844E-3,5C000000,-0724,0826,12280,026.1,045.4,0.477,729.3,01.19,0.508
2014-09-16 01:52:00,1841E-3,5C000000,-0724,0825,12303,026.1,045.4,0.478,729.3,01.19,0.508
2014-09-16 01:53:00,1856E-3,5C000000,-0724,0826,12325,026.1,045.5,0.477,729.3,01.19,0.508
2014-09-16 01:54:00,1813E-3,5C000000,-0724,0826,12418,026.1,045.4,0.477,729.3,01.19,0.508
2014-09-16 01:55:00,1783E-3,5C000000,-0724,0825,12238,026.1,045.4,0.477,729.3,01.19,0.508
2014-09-16 01:56:00,1981E-3,5C000000,-0724,0826,12420,026.1,045.4,0.477,729.3,01.19,0.508
2014-09-16 01:57:00,1806E-3,5C000000,-0724,0825,12221,026.1,045.4,0.478,729.2,01.19,0.508
2014-09-16 01:58:00,1830E-3,5C000000,-0724,0826,12224,026.1,045.4,0.477,729.3,01.19,0.508
2014-09-16 01:59:00,1720E-3,5C000000,-0724,0824,12091,026.1,045.4,0.478,729.2,01.19,0.508
2014-09-16 02:00:00,1711E-3,5C000000,-0724,0826,12304,026.1,045.4,0.477,729.2,01.19,0.508
2014-09-16 02:01:00,1677E-3,5C000000,-0724,0826,12114,026.1,045.4,0.477,729.2,01.19,0.508
2014-09-16 02:02:00,1927E-3,5C000000,-0724,0825,12263,026.1,045.4,0.478,729.2,01.19,0.508
2014-09-16 02:03:00,1875E-3,5C000000,-0724,0825,12218,026.1,045.4,0.477,729.2,01.19,0.508
2014-09-16 02:04:00,1836E-3,5C000000,-0724,0826,12178,026.1,045.4,0.477,729.1,01.19,0.508
2014-09-16 02:05:00,1705E-3,5C000000,-0724,0825,12185,026.1,045.4,0.477,729.1,01.19,0.508
2014-09-16 02:06:00,1808E-3,5C000000,-0724,0826,12128,026.1,045.4,0.477,729.0,01.19,0.508
2014-09-16 02:07:00,1777E-3,5C000000,-0724,0825,12362,026.1,045.4,0.478,729.0,01.19,0.508
2014-09-16 02:08:00,1795E-3,5C000000,-0724,0825,12208,026.1,045.4,0.477,729.0,01.19,0.508
2014-09-16 02:09:00,1834E-3,5C000000,-0724,0826,12362,026.1,045.4,0.477,729.0,01.19,0.508
2014-09-16 02:10:00,1847E-3,5C000000,-0724,0825,12247,026.1,045.4,0.477,729.0,01.19,0.508
2014-09-16 02:11:00,1874E-3,5C000000,-0724,0826,11926,026.1,045.4,0.477,729.0,01.19,0.508
2014-09-16 02:12:00,1883E-3,5C000000,-0724,0826,12297,026.1,045.4,0.478,729.0,01.19,0.508
2014-09-16 02:13:00,1829E-3,5C000000,-0724,0826,12274,026.1,045.4,0.477,729.0,01.19,0.508
2014-09-16 02:14:00,1734E-3,5C000000,-0724,0827,12196,026.1,045.4,0.477,729.0,01.19,0.508
2014-09-16 02:15:00,1913E-3,5C000000,-0724,0826,12273,026.1,045.4,0.478,729.0,01.19,0.508
2014-09-16 02:16:00,1886E-3,5C000000,-0724,0826,12306,026.1,045.4,0.477,729.0,01.19,0.508
2014-09-16 02:17:00,1811E-3,5C000000,-0724,0826,12349,026.1,045.4,0.477,729.0,01.19,0.508
2014-09-16 02:18:00,1873E-3,5C000000,-0724,0826,12217,026.1,045.4,0.477,729.0,01.19,0.508
2014-09-16 02:19:00,1965E-3,5C000000,-0724,0826,12229,026.1,045.4,0.477,728.9,01.19,0.508
2014-09-16 02:20:00,1814E-3,5C000000,-0724,0825,12232,026.1,045.4,0.477,728.9,01.19,0.508
2014-09-16 02:21:00,1924E-3,5C000000,-0724,0825,12215,026.1,045.4,0.477,728.9,01.19,0.508
2014-09-16 02:22:00,1930E-3,5C000000,-0724,0826,12123,026.1,045.4,0.477,728.9,01.19,0.508
2014-09-16 02:23:00,1896E-3,5C000000,-0724,0825,12129,026.1,045.4,0.477,728.9,01.19,0.508
2014-09-16 02:24:00,1751E-3,5C000000,-0724,0826,12220,026.1,045.4,0.477,728.9,01.19,0.508
2014-09-16 02:25:00,1896E-3,5C000000,-0724,0825,12117,026.1,045.4,0.477,728.9,01.19,0.508
2014-09-16 02:26:00,1783E-3,5C000000,-0724,0826,12292,026.1,045.4,0.477,728.9,01.19,0.508
2014-09-16 02:27:00,1821E-3,5C000000,-0724,0826,12183,026.2,045.4,0.477,728.9,01.19,0.508
2014-09-16 02:28:00,1704E-3,5C000000,-0724,0826,12186,026.1,045.4,0.477,728.9,01.19,0.508
2014-09-16 02:29:00,1873E-3,5C000000,-0724,0826,12246,026.1,045.4,0.477,728.9,01.19,0.508
2014-09-16 02:30:00,1828E-3,5C000000,-0724,0826,12209,026.1,045.4,0.477,728.9,01.19,0.508
2014-09-16 02:31:00,1699E-3,5C000000,-0724,0826,12259,026.1,045.4,0.477,728.9,01.19,0.508
2014-09-16 02:32:00,1801E-3,5C000000,-0724,0826,12291,026.1,045.4,0.477,728.8,01.19,0.508
2014-09-16 02:33:00,1888E-3,5C000000,-0724,0825,12229,026.1,045.4,0.477,728.8,01.19,0.508
2014-09-16 02:34:00,1892E-3,5C000000,-0724,0826,12260,026.1,045.4,0.477,728.8,01.19,0.508
2014-09-16 02:35:00,1890E-3,5C000000,-0724,0826,12353,026.1,045.4,0.477,728.8,01.19,0.508
2014-09-16 02:36:00,1945E-3,5C000000,-0724,0826,12259,026.1,045.4,0.477,728.8,01.19,0.508
2014-09-16 02:37:00,1803E-3,5C000000,-0724,0825,12228,026.1,045.4,0.477,728.8,01.19,0.508
2014-09-16 02:38:00,1807E-3,5C000000,-0724,0825,11873,026.2,045.4,0.477,728.7,01.19,0.508
2014-09-16 02:39:00,1894E-3,5C000000,-0724,0825,12363,026.1,045.4,0.477,728.7,01.19,0.508
2014-09-16 02:40:00,1799E-3,5C000000,-0724,0826,12152,026.1,045.4,0.477,728.7,01.19,0.508
2014-09-16 02:41:00,1825E-3,5C000000,-0724,0826,12057,026.1,045.4,0.477,728.7,01.19,0.508
2014-09-16 02:42:00,1936E-3,5C000000,-0724,0826,12114,026.1,045.4,0.477,728.7,01.19,0.508
2014-09-16 02:43:00,1945E-3,5C000000,-0724,0826,12313,026.1,045.4,0.477,728.6,01.19,0.508
2014-09-16 02:44:00,1916E-3,5C000000,-0724,0825,12305,026.1,045.4,0.477,728.6,01.19,0.508
2014-09-16 02:45:00,1804E-3,5C000000,-0724,0826,12463,026.2,045.4,0.477,728.6,01.19,0.508
2014-09-16 02:46:00,1863E-3,5C000000,-0724,0826,12400,026.1,045.4,0.477,728.6,01.19,0.508
2014-09-16 02:47:00,1868E-3,5C000000,-0724,0826,12178,026.1,045.4,0.477,728.6,01.19,0.508
2014-09-16 02:48:00,1876E-3,5C000000,-0724,0826,12150,026.1,045.4,0.477,728.6,01.19,0.508
2014-09-16 02:49:00,1848E-3,5C000000,-0724,0825,12090,026.1,045.4,0.477,728.6,01.19,0.508
2014-09-16 02:50:00,1879E-3,5C000000,-0724,0825,12245,026.2,045.4,0.477,728.6,01.19,0.508
2014-09-16 02:51:00,1775E-3,5C000000,-0724,0825,12113,026.2,045.4,0.477,728.5,01.19,0.508
2014-09-16 02:52:00,1860E-3,5C000000,-0724,0825,12284,026.2,045.4,0.477,728.5,01.19,0.508
2014-09-16 02:53:00,1802E-3,5C000000,-0724,0826,11948,026.1,045.4,0.477,728.5,01.19,0.508
2014-09-16 02:54:00,1817E-3,5C000000,-0724,0827,12286,026.2,045.4,0.477,728.6,01.19,0.508
2014-09-16 02:55:00,1672E-3,5C000000,-0724,0826,12190,026.2,045.4,0.477,728.6,01.19,0.508
2014-09-16 02:56:00,1846E-3,5C000000,-0724,0825,12281,026.2,045.4,0.477,728.6,01.19,0.508
2014-09-16 02:57:00,1747E-3,5C000000,-0724,0826,12134,026.2,045.4,0.477,728.6,01.19,0.508
2014-09-16 02:58:00,1878E-3,5C000000,-0724,0826,12385,026.2,045.4,0.477,728.6,01.19,0.508
2014-09-16 02:59:00,1885E-3,5C000000,-0724,0826,12229,026.2,045.4,0.477,728.6,01.19,0.508
2014-09-16 03:00:00,1703E-3,5C000000,-0724,0827,12019,026.2,045.4,0.477,728.6,01.19,0.508
2014-09-16 03:01:00,1839E-3,5C000000,-0724,0825,12234,026.2,045.4,0.477,728.5,01.19,0.508
2014-09-16 03:02:00,1797E-3,5C000000,-0724,0825,12267,026.2,045.4,0.477,728.5,01.19,0.508
2014-09-16 03:03:00,1892E-3,5C000000,-0724,0826,12111,026.1,045.4,0.477,728.5,01.19,0.508
2014-09-16 03:04:00,1689E-3,5C000000,-0724,0826,12270,026.2,045.4,0.477,728.5,01.19,0.508
2014-09-16 03:05:00,1810E-3,5C000000,-0724,0826,12275,026.1,045.4,0.477,728.5,01.19,0.508
2014-09-16 03:06:00,1926E-3,5C000000,-0724,0824,12040,026.2,045.4,0.477,728.6,01.19,0.508
2014-09-16 03:07:00,1746E-3,5C000000,-0724,0826,12367,026.2,045.4,0.477,728.6,01.19,0.508
2014-09-16 03:08:00,1770E-3,5C000000,-0724,0827,12392,026.1,045.4,0.477,728.6,01.19,0.508
2014-09-16 03:09:00,1809E-3,5C000000,-0724,0827,12408,026.2,045.4,0.477,728.6,01.19,0.508
2014-09-16 03:10:00,1841E-3,5C000000,-0724,0826,12255,026.2,045.4,0.477,728.6,01.19,0.508
2014-09-16 03:11:00,1757E-3,5C000000,-0724,0826,12187,026.2,045.4,0.477,728.6,01.19,0.508
2014-09-16 03:12:00,1837E-3,5C000000,-0724,0825,12276,026.2,045.4,0.477,728.5,01.19,0.508
2014-09-16 03:13:00,1838E-3,5C000000,-0724,0825,12204,026.2,045.4,0.477,728.5,01.19,0.508
2014-09-16 03:14:00,1739E-3,5C000000,-0724,0825,12384,026.2,045.4,0.477,728.5,01.19,0.508
2014-09-16 03:15:00,1792E-3,5C000000,-0724,0826,12238,026.2,045.4,0.477,728.5,01.19,0.508
2014-09-16 03:16:00,1760E-3,5C000000,-0724,0825,12167,026.2,045.4,0.477,728.5,01.19,0.508
2014-09-16 03:17:00,1684E-3,5C000000,-0724,0826,12409,026.2,045.4,0.477,728.4,01.19,0.508
2014-09-16 03:18:00,1903E-3,5C000000,-0724,0825,12375,026.2,045.4,0.477,728.5,01.19,0.508
2014-09-16 03:19:00,1692E-3,5C000000,-0724,0827,12246,026.2,045.4,0.477,728.4,01.19,0.508
2014-09-16 03:20:00,1900E-3,5C000000,-0724,0824,12106,026.2,045.4,0.477,728.4,01.19,0.508
2014-09-16 03:21:00,1717E-3,5C000000,-0724,0825,12263,026.2,045.4,0.477,728.4,01.19,0.508
2014-09-16 03:22:00,1665E-3,5C000000,-0724,0825,12115,026.2,045.4,0.477,728.5,01.19,0.508
2014-09-16 03:23:00,1918E-3,5C000000,-0724,0826,12103,026.2,045.4,0.477,728.5,01.19,0.508
2014-09-16 03:24:00,1889E-3,5C000000,-0724,0825,12319,026.2,045.4,0.477,728.5,01.19,0.508
2014-09-16 03:25:00,1896E-3,5C000000,-0724,0825,12369,026.2,045.4,0.477,728.4,01.19,0.508
2014-09-16 03:26:00,1886E-3,5C000000,-0724,0825,12125,026.2,045.4,0.477,728.5,01.19,0.508
2014-09-16 03:27:00,1769E-3,5C000000,-0724,0825,12125,026.2,045.4,0.477,728.4,01.19,0.508
2014-09-16 03:28:00,1920E-3,5C000000,-0724,0825,12290,026.2,045.4,0.477,728.4,01.19,0.508
2014-09-16 03:29:00,1783E-3,5C000000,-0724,0826,12188,026.2,045.4,0.477,728.5,01.19,0.508
2014-09-16 03:30:00,1842E-3,5C000000,-0724,0826,12277,026.2,045.4,0.477,728.5,01.19,0.508
2014-09-16 03:31:00,1751E-3,5C000000,-0724,0825,12223,026.2,045.4,0.477,728.5,01.19,0.508
2014-09-16 03:32:00,1930E-3,5C000000,-0724,0826,12256,026.2,045.4,0.477,728.5,01.19,0.508
2014-09-16 03:33:00,1638E-3,5C000000,-0724,0826,12206,026.2,045.4,0.477,728.5,01.19,0.508
2014-09-16 03:34:00,1836E-3,5C000000,-0724,0825,12331,026.2,045.4,0.477,728.5,01.19,0.508
2014-09-16 03:35:00,1903E-3,5C000000,-0724,0825,12265,026.2,045.4,0.477,728.5,01.19,0.508
2014-09-16 03:36:00,1713E-3,5C000000,-0724,0826,12289,026.2,045.4,0.477,728.4,01.19,0.508
2014-09-16 03:37:00,1976E-3,5C000000,-0724,0825,12224,026.2,045.4,0.477,728.4,01.19,0.508
2014-09-16 03:38:00,1823E-3,5C000000,-0724,0826,12354,026.2,045.4,0.477,728.4,01.19,0.508
2014-09-16 03:39:00,1848E-3,5C000000,-0724,0826,12305,026.2,045.4,0.477,728.4,01.19,0.508
2014-09-16 03:40:00,1874E-3,5C000000,-0724,0827,12382,026.2,045.4,0.477,728.3,01.19,0.508
2014-09-16 03:41:00,1811E-3,5C000000,-0724,0826,12340,026.2,045.4,0.477,728.3,01.19,0.508
2014-09-16 03:42:00,1753E-3,5C000000,-0724,0827,12020,026.2,045.4,0.477,728.3,01.19,0.508
2014-09-16 03:43:00,1926E-3,5C000000,-0724,0826,12160,026.2,045.4,0.477,728.3,01.19,0.508
2014-09-16 03:44:00,1829E-3,5C000000,-0724,0826,12331,026.2,045.4,0.477,728.3,01.19,0.508
2014-09-16 03:45:00,1793E-3,5C000000,-0724,0825,12117,026.2,045.4,0.476,728.3,01.19,0.508
2014-09-16 03:46:00,1714E-3,5C000000,-0724,0825,12375,026.2,045.4,0.477,728.3,01.19,0.508
2014-09-16 03:47:00,1844E-3,5C000000,-0724,0826,12183,026.2,045.4,0.477,728.2,01.19,0.508
2014-09-16 03:48:00,1936E-3,5C000000,-0724,0826,12088,026.2,045.4,0.476,728.2,01.19,0.508
2014-09-16 03:49:00,1723E-3,5C000000,-0724,0827,12149,026.2,045.4,0.477,728.1,01.19,0.508
2014-09-16 03:50:00,1715E-3,5C000000,-0724,0825,12285,026.2,045.4,0.477,728.2,01.19,0.508
2014-09-16 03:51:00,1853E-3,5C000000,-0724,0826,12339,026.2,045.4,0.476,728.2,01.19,0.508
2014-09-16 03:52:00,1932E-3,5C000000,-0724,0825,12003,026.3,045.4,0.477,728.2,01.19,0.508
2014-09-16 03:53:00,1880E-3,5C000000,-0724,0826,12176,026.2,045.4,0.477,728.1,01.19,0.508
2014-09-16 03:54:00,1718E-3,5C000000,-0724,0825,11981,026.2,045.4,0.476,728.1,01.19,0.508
2014-09-16 03:55:00,1770E-3,5C000000,-0724,0825,12233,026.3,045.4,0.477,728.1,01.19,0.508
2014-09-16 03:56:00,1836E-3,5C000000,-0724,0826,12177,026.2,045.4,0.477,728.1,01.19,0.508
2014-09-16 03:57:00,1924E-3,5C000000,-0724,0826,11924,026.2,045.4,0.476,728.1,01.19,0.508
2014-09-16 03:58:00,1723E-3,5C000000,-0724,0826,12347,026.2,045.4,0.477,728.1,01.19,0.508
2014-09-16 03:59:00,1832E-3,5C000000,-0724,0826,12291,026.3,045.4,0.477,728.1,01.19,0.508
2014-09-16 04:00:00,1881E-3,5C000000,-0724,0825,12009,026.3,045.4,0.476,728.1,01.19,0.508
2014-09-16 04:01:00,1808E-3,5C000000,-0724,0825,12241,026.3,045.4,0.477,728.1,01.19,0.508
2014-09-16 04:02:00,1931E-3,5C000000,-0724,0826,12298,026.3,045.4,0.477,728.1,01.19,0.508
2014-09-16 04:03:00,1828E-3,5C000000,-0724,0827,12335,026.3,045.4,0.476,728.1,01.19,0.508
2014-09-16 04:04:00,1822E-3,5C000000,-0724,0825,12073,026.3,045.4,0.477,728.0,01.19,0.508
2014-09-16 04:05:00,1703E-3,5C000000,-0724,0825,12304,026.3,045.4,0.477,728.0,01.19,0.508
2014-09-16 04:06:00,1737E-3,5C000000,-0724,0826,12171,026.3,045.4,0.476,728.0,01.19,0.508
2014-09-16 04:07:00,1673E-3,5C000000,-0724,0826,12326,026.3,045.4,0.477,728.0,01.19,0.508
2014-09-16 04:08:00,1823E-3,5C000000,-0724,0826,12158,026.3,045.4,0.477,727.9,01.19,0.508
2014-09-16 04:09:00,1864E-3,5C000000,-0724,0826,12215,026.3,045.4,0.476,727.9,01.19,0.508
2014-09-16 04:10:00,1657E-3,5C000000,-0724,0826,12188,026.3,045.4,0.477,728.0,01.19,0.508
2014-09-16 04:11:00,1775E-3,5C000000,-0724,0825,12166,026.3,045.4,0.477,727.9,01.19,0.508
2014-09-16 04:12:00,1898E-3,5C000000,-0724,0826,12141,026.3,045.4,0.476,727.9,01.19,0.508
2014-09-16 04:13:00,1698E-3,5C000000,-0724,0826,12439,026.3,045.4,0.477,727.9,01.19,0.508
2014-09-16 04:14:00,1642E-3,5C000000,-0724,0826,12232,026.3,045.4,0.477,728.0,01.19,0.508
2014-09-16 04:15:00,1796E-3,5C000000,-0724,0825,12006,026.3,045.4,0.476,728.0,01.19,0.508
2014-09-16 04:16:00,1916E-3,5C000000,-0724,0826,12242,026.3,045.4,0.477,728.0,01.19,0.508
2014-09-16 04:17:00,1723E-3,5C000000,-0724,0826,11972,026.3,045.4,0.477,728.1,01.19,0.508
2014-09-16 04:18:00,1791E-3,5C000000,-0724,0828,12223,026.3,045.4,0.476,728.1,01.19,0.508
2014-09-16 04:19:00,1810E-3,5C000000,-0724,0826,12317,026.3,045.4,0.476,728.1,01.19,0.508
2014-09-16 04:20:00,1892E-3,5C000000,-0724,0825,12128,026.3,045.4,0.477,728.1,01.19,0.508